,,Stat5,,Stat1,,Stat2,,Stat3,,Stat4,,Wind1,,Wind1,
time,status,PA1M_AVG,status,PR1M_SUM,status,RH1M_AVG,status,SR1M_AVG,status,TA1M_AVG,status,W1dAve1m,status,W1sAve1m,
2003-05-15, 00:00:00,VALID,917.811,VALID,0,VALID,98.2124,VALID,0.135847,VALID,19.598,VALID,128,VALID,0.393229,
2003-05-15, 00:01:00,VALID,917.797,VALID,0,VALID,98.1895,VALID,0.101885,VALID,19.5975,VALID,70,VALID,0.274239,
2003-05-15, 00:02:00,VALID,917.78,VALID,0,VALID,98.1552,VALID,0.118866,VALID,19.588,VALID,65,VALID,0.0472756,
2003-05-15, 00:03:00,VALID,917.76,VALID,0,VALID,98.1157,VALID,0.118866,VALID,19.5985,VALID,65,VALID,0,
2003-05-15, 00:04:00,VALID,917.755,VALID,0,VALID,98.0789,VALID,0.118866,VALID,19.6074,VALID,65,VALID,0.146034,
2003-05-15, 00:05:00,VALID,917.74,VALID,0,VALID,98.1234,VALID,0.0679233,VALID,19.6107,VALID,65,VALID,0.175223,
2003-05-15, 00:06:00,VALID,917.738,VALID,0,VALID,98.0852,VALID,0.152827,VALID,19.6042,VALID,65,VALID,0.0355674,
2003-05-15, 00:07:00,VALID,917.733,VALID,0,VALID,97.9606,VALID,0.20377,VALID,19.5848,VALID,69,VALID,0.321652,
2003-05-15, 00:08:00,VALID,917.715,VALID,0,VALID,97.9352,VALID,0.135847,VALID,19.5721,VALID,70,VALID,0.196615,
2003-05-15, 00:09:00,VALID,917.708,VALID,0,VALID,97.9085,VALID,0.101885,VALID,19.5557,VALID,71,VALID,0.345753,
2003-05-15, 00:10:00,VALID,917.703,VALID,0,VALID,97.9479,VALID,0.0509425,VALID,19.554,VALID,71,VALID,0.279911,
2003-05-15, 00:11:00,VALID,917.684,VALID,0,VALID,97.9314,VALID,0.0849042,VALID,19.5612,VALID,71,VALID,0.0689732,
2003-05-15, 00:12:00,VALID,917.689,VALID,0,VALID,97.7978,VALID,0.0849042,VALID,19.5413,VALID,71,VALID,0.331931,
2003-05-15, 00:13:00,VALID,917.673,VALID,0,VALID,97.6745,VALID,0.0679233,VALID,19.5152,VALID,71,VALID,0.298438,
2003-05-15, 00:14:00,VALID,917.652,VALID,0,VALID,97.6147,VALID,0.0339617,VALID,19.4925,VALID,71,VALID,0.151259,
2003-05-15, 00:15:00,VALID,917.673,VALID,0,VALID,97.6046,VALID,0.0169808,VALID,19.4669,VALID,71,VALID,0.0350561,
2003-05-15, 00:16:00,VALID,917.66,VALID,0,VALID,97.6402,VALID,0.0169808,VALID,19.4702,VALID,51,VALID,0.386161,
2003-05-15, 00:17:00,VALID,917.647,VALID,0,VALID,97.7266,VALID,0,VALID,19.4443,VALID,50,VALID,0.533929,
2003-05-15, 00:18:00,VALID,917.638,VALID,0,VALID,97.7063,VALID,0.0509425,VALID,19.4478,VALID,61,VALID,0.315304,
2003-05-15, 00:19:00,VALID,917.641,VALID,0,VALID,97.78,VALID,0.0339617,VALID,19.4413,VALID,63,VALID,0.0566964,
2003-05-15, 00:20:00,VALID,917.628,VALID,0,VALID,97.663,VALID,0.0169808,VALID,19.4416,VALID,63,VALID,0.00434028,
2003-05-15, 00:21:00,VALID,917.613,VALID,0,VALID,97.5244,VALID,-0.0339617,VALID,19.3965,VALID,63,VALID,0,
2003-05-15, 00:22:00,VALID,917.589,VALID,0,VALID,97.4456,VALID,-0.0169808,VALID,19.3506,VALID,63,VALID,0.435045,
2003-05-15, 00:23:00,VALID,917.581,VALID,0,VALID,97.6109,VALID,0.0849042,VALID,19.3346,VALID,63,VALID,0.276563,
2003-05-15, 00:24:00,VALID,917.582,VALID,0,VALID,97.747,VALID,0.0849042,VALID,19.3247,VALID,63,VALID,0.420473,
2003-05-15, 00:25:00,VALID,917.568,VALID,0,VALID,97.7254,VALID,0.0339617,VALID,19.3247,VALID,63,VALID,0.257143,
2003-05-15, 00:26:00,VALID,917.561,VALID,0,VALID,97.396,VALID,0.0339617,VALID,19.2993,VALID,65,VALID,0.490668,
2003-05-15, 00:27:00,VALID,917.547,VALID,0,VALID,97.2383,VALID,0.0509425,VALID,19.2628,VALID,74,VALID,0.340946,
2003-05-15, 00:28:00,VALID,917.544,VALID,0,VALID,97.0489,VALID,0.0339617,VALID,19.2864,VALID,74,VALID,0.552902,
2003-05-15, 00:29:00,VALID,917.514,VALID,0,VALID,96.8301,VALID,0.0339617,VALID,19.2991,VALID,71,VALID,0.65558,
2003-05-15, 00:30:00,VALID,917.496,VALID,0,VALID,96.7068,VALID,0.0169808,VALID,19.309,VALID,56,VALID,0.589944,
2003-05-15, 00:31:00,VALID,917.502,VALID,0,VALID,96.6356,VALID,0.0509425,VALID,19.319,VALID,54,VALID,0.472768,
2003-05-15, 00:32:00,VALID,917.478,VALID,0,VALID,96.497,VALID,0,VALID,19.3217,VALID,59,VALID,0.478733,
2003-05-15, 00:33:00,VALID,917.452,VALID,0,VALID,96.2465,VALID,0,VALID,19.3095,VALID,69,VALID,0.527244,
2003-05-15, 00:34:00,VALID,917.433,VALID,0,VALID,96.0201,VALID,-0.0169808,VALID,19.2832,VALID,73,VALID,0.5375,
2003-05-15, 00:35:00,VALID,917.417,VALID,0,VALID,96.1727,VALID,0.0509425,VALID,19.2993,VALID,73,VALID,0.183259,
2003-05-15, 00:36:00,VALID,917.405,VALID,0,VALID,96.2465,VALID,0.0849042,VALID,19.3093,VALID,73,VALID,0.276843,
2003-05-15, 00:37:00,VALID,917.407,VALID,0,VALID,96.3927,VALID,0.0679233,VALID,19.3088,VALID,91,VALID,0.320313,
2003-05-15, 00:38:00,VALID,917.395,VALID,0,VALID,96.4118,VALID,0.0169808,VALID,19.3055,VALID,115,VALID,0.587457,
2003-05-15, 00:39:00,VALID,917.357,VALID,0,VALID,96.1193,VALID,-0.0169808,VALID,19.2896,VALID,119,VALID,0.603966,
2003-05-15, 00:40:00,VALID,917.341,VALID,0,VALID,96.4067,VALID,0.118866,VALID,19.3073,VALID,122,VALID,0.16875,
2003-05-15, 00:41:00,VALID,917.349,VALID,0,VALID,96.5326,VALID,0.135847,VALID,19.3463,VALID,121,VALID,0.0979911,
2003-05-15, 00:42:00,VALID,917.338,VALID,0,VALID,96.5707,VALID,0.118866,VALID,19.3528,VALID,121,VALID,0.126803,
2003-05-15, 00:43:00,VALID,917.334,VALID,0,VALID,96.6305,VALID,0.169808,VALID,19.3391,VALID,122,VALID,0.26875,
2003-05-15, 00:44:00,VALID,917.341,VALID,0,VALID,96.7081,VALID,0.135847,VALID,19.359,VALID,134,VALID,0.460069,
2003-05-15, 00:45:00,VALID,917.349,VALID,0,VALID,96.8874,VALID,0.0849042,VALID,19.3526,VALID,111,VALID,0.558694,
2003-05-15, 00:46:00,VALID,917.334,VALID,0,VALID,97.0425,VALID,0.101885,VALID,19.359,VALID,92,VALID,0.206027,
2003-05-15, 00:47:00,VALID,917.307,VALID,0,VALID,97.1048,VALID,0.186789,VALID,19.3461,VALID,99,VALID,0.217411,
2003-05-15, 00:48:00,VALID,917.296,VALID,0,VALID,97.204,VALID,0.135847,VALID,19.3396,VALID,121,VALID,0.22516,
2003-05-15, 00:49:00,VALID,917.286,VALID,0,VALID,97.2447,VALID,0.135847,VALID,19.3463,VALID,140,VALID,0.585268,
2003-05-15, 00:50:00,VALID,917.273,VALID,0,VALID,97.3261,VALID,0.118866,VALID,19.3466,VALID,121,VALID,0.532335,
2003-05-15, 00:51:00,VALID,917.243,VALID,0,VALID,97.4609,VALID,0.118866,VALID,19.3466,VALID,102,VALID,0.627604,
2003-05-15, 00:52:00,VALID,917.217,VALID,0,VALID,97.4837,VALID,0.135847,VALID,19.3434,VALID,106,VALID,0.903795,
2003-05-15, 00:53:00,VALID,917.195,VALID,0,VALID,97.4812,VALID,0.0849042,VALID,19.3501,VALID,119,VALID,0.552009,
2003-05-15, 00:54:00,VALID,917.188,VALID,0,VALID,97.5054,VALID,0.118866,VALID,19.3595,VALID,128,VALID,0.34976,
2003-05-15, 00:55:00,VALID,917.185,VALID,0,VALID,97.5499,VALID,0.118866,VALID,19.3501,VALID,136,VALID,0.426562,
2003-05-15, 00:56:00,VALID,917.16,VALID,0,VALID,97.5893,VALID,0.118866,VALID,19.3662,VALID,136,VALID,0.236545,
2003-05-15, 00:57:00,VALID,917.144,VALID,0,VALID,97.5855,VALID,0.0679233,VALID,19.3627,VALID,136,VALID,0.49379,
2003-05-15, 00:58:00,VALID,917.129,VALID,0,VALID,97.6427,VALID,0.0849042,VALID,19.3625,VALID,125,VALID,0.648438,
2003-05-15, 00:59:00,VALID,917.114,VALID,0,VALID,97.6885,VALID,0.152827,VALID,19.3854,VALID,118,VALID,0.643304,
2003-05-15, 01:00:00,VALID,917.097,VALID,0,VALID,97.6707,VALID,0.169808,VALID,19.3884,VALID,112,VALID,0.438101,
2003-05-15, 01:01:00,VALID,917.067,VALID,0,VALID,97.6325,VALID,0.118866,VALID,19.3918,VALID,100,VALID,0.641518,
2003-05-15, 01:02:00,VALID,917.043,VALID,0,VALID,97.6923,VALID,0.135847,VALID,19.3881,VALID,92,VALID,0.246962,
2003-05-15, 01:03:00,VALID,917.054,VALID,0,VALID,97.6999,VALID,0.135847,VALID,19.3921,VALID,92,VALID,0.248197,
2003-05-15, 01:04:00,VALID,917.039,VALID,0,VALID,97.6173,VALID,0.118866,VALID,19.3821,VALID,111,VALID,0.411384,
2003-05-15, 01:05:00,VALID,917.03,VALID,0,VALID,97.6936,VALID,0.135847,VALID,19.3918,VALID,140,VALID,0.686607,
2003-05-15, 01:06:00,VALID,917.005,VALID,0,VALID,97.7495,VALID,0.101885,VALID,19.4018,VALID,145,VALID,0.908253,
2003-05-15, 01:07:00,VALID,916.993,VALID,0,VALID,97.6402,VALID,0.118866,VALID,19.3988,VALID,144,VALID,1.01049,
2003-05-15, 01:08:00,VALID,916.956,VALID,0,VALID,97.4977,VALID,0.118866,VALID,19.4048,VALID,141,VALID,0.721788,
2003-05-15, 01:09:00,VALID,916.951,VALID,0,VALID,97.4443,VALID,0.101885,VALID,19.4239,VALID,143,VALID,0.18149,
2003-05-15, 01:10:00,VALID,916.952,VALID,0,VALID,97.4761,VALID,0.0679233,VALID,19.4406,VALID,141,VALID,2.0904,
2003-05-15, 01:11:00,VALID,916.94,VALID,0,VALID,97.452,VALID,0.118866,VALID,19.4639,VALID,94,VALID,0.359821,
2003-05-15, 01:12:00,VALID,916.924,VALID,0,VALID,97.265,VALID,0.101885,VALID,19.4272,VALID,84,VALID,0.250601,
2003-05-15, 01:13:00,VALID,916.929,VALID,0,VALID,97.2625,VALID,0.118866,VALID,19.4212,VALID,127,VALID,0.534821,
2003-05-15, 01:14:00,VALID,916.92,VALID,0,VALID,96.9192,VALID,0.101885,VALID,19.3856,VALID,141,VALID,0.577474,
2003-05-15, 01:15:00,VALID,916.9,VALID,0,VALID,96.8009,VALID,0.101885,VALID,19.3854,VALID,141,VALID,0.128806,
2003-05-15, 01:16:00,VALID,916.893,VALID,0,VALID,96.8594,VALID,0.135847,VALID,19.4274,VALID,48,VALID,0.366741,
2003-05-15, 01:17:00,VALID,916.864,VALID,0,VALID,96.9306,VALID,0.118866,VALID,19.4595,VALID,29,VALID,0.171652,
2003-05-15, 01:18:00,VALID,916.861,VALID,0,VALID,96.9281,VALID,0.118866,VALID,19.4697,VALID,29,VALID,0.0402644,
2003-05-15, 01:19:00,VALID,916.847,VALID,0,VALID,96.8594,VALID,0.118866,VALID,19.4694,VALID,29,VALID,0.0939732,
2003-05-15, 01:20:00,VALID,916.84,VALID,0,VALID,96.6547,VALID,0.118866,VALID,19.4602,VALID,29,VALID,0.278863,
2003-05-15, 01:21:00,VALID,916.814,VALID,0,VALID,96.5059,VALID,0.0339617,VALID,19.4209,VALID,29,VALID,0.0144231,
2003-05-15, 01:22:00,VALID,916.8,VALID,0,VALID,96.3215,VALID,0.0339617,VALID,19.3884,VALID,24,VALID,0.271429,
2003-05-15, 01:23:00,VALID,916.786,VALID,0,VALID,94.8592,VALID,0.101885,VALID,19.4408,VALID,307,VALID,0.487277,
2003-05-15, 01:24:00,VALID,916.793,VALID,0,VALID,93.6066,VALID,0.118866,VALID,19.5955,VALID,303,VALID,0.232973,
2003-05-15, 01:25:00,VALID,916.774,VALID,0,VALID,94.1738,VALID,0.101885,VALID,19.686,VALID,11,VALID,0.453571,
2003-05-15, 01:26:00,VALID,916.764,VALID,0,VALID,94.4344,VALID,0.118866,VALID,19.6763,VALID,21,VALID,0.292752,
2003-05-15, 01:27:00,VALID,916.774,VALID,0,VALID,94.5578,VALID,0.0849042,VALID,19.6343,VALID,21,VALID,0.0136218,
2003-05-15, 01:28:00,VALID,916.775,VALID,0,VALID,94.4433,VALID,0.118866,VALID,19.602,VALID,21,VALID,0,
2003-05-15, 01:29:00,VALID,916.757,VALID,0,VALID,94.5018,VALID,0.101885,VALID,19.5828,VALID,21,VALID,0,
2003-05-15, 01:30:00,VALID,916.738,VALID,0,VALID,93.908,VALID,0.0849042,VALID,19.5669,VALID,20,VALID,0.426883,
2003-05-15, 01:31:00,VALID,916.733,VALID,0,VALID,94.3912,VALID,0.118866,VALID,19.5987,VALID,20,VALID,0.104241,
2003-05-15, 01:32:00,VALID,916.749,VALID,0,VALID,94.5311,VALID,0.0849042,VALID,19.6253,VALID,318,VALID,0.248264,
2003-05-15, 01:33:00,VALID,916.732,VALID,0,VALID,93.9487,VALID,0.0679233,VALID,19.5955,VALID,305,VALID,0.34976,
2003-05-15, 01:34:00,VALID,916.708,VALID,0,VALID,93.9614,VALID,0.101885,VALID,19.6022,VALID,85,VALID,0.225893,
2003-05-15, 01:35:00,VALID,916.698,VALID,0,VALID,93.7223,VALID,0.118866,VALID,19.6087,VALID,51,VALID,0.310491,
2003-05-15, 01:36:00,VALID,916.689,VALID,0,VALID,93.2658,VALID,0.101885,VALID,19.6408,VALID,300,VALID,0.626002,
2003-05-15, 01:37:00,VALID,916.709,VALID,0,VALID,92.822,VALID,0.135847,VALID,19.6793,VALID,242,VALID,0.305804,
2003-05-15, 01:38:00,VALID,916.704,VALID,0,VALID,92.2918,VALID,0.101885,VALID,19.6957,VALID,252,VALID,0.0392795,
2003-05-15, 01:39:00,VALID,916.687,VALID,0,VALID,92.9874,VALID,0.0679233,VALID,19.7318,VALID,8,VALID,0.261218,
2003-05-15, 01:40:00,VALID,916.669,VALID,0,VALID,93.1679,VALID,0.101885,VALID,19.7315,VALID,13,VALID,0.212277,
2003-05-15, 01:41:00,VALID,916.651,VALID,0,VALID,93.3116,VALID,0.101885,VALID,19.7161,VALID,43,VALID,0.181696,
2003-05-15, 01:42:00,VALID,916.663,VALID,0,VALID,93.5481,VALID,0.101885,VALID,19.6736,VALID,45,VALID,0,
2003-05-15, 01:43:00,VALID,916.655,VALID,0,VALID,93.5291,VALID,0.135847,VALID,19.6146,VALID,30,VALID,0.0488839,
2003-05-15, 01:44:00,VALID,916.659,VALID,0,VALID,93.6015,VALID,0.0849042,VALID,19.6281,VALID,285,VALID,0.317057,
2003-05-15, 01:45:00,VALID,916.643,VALID,0,VALID,93.2569,VALID,0.0679233,VALID,19.6214,VALID,291,VALID,0.28125,
2003-05-15, 01:46:00,VALID,916.632,VALID,0,VALID,93.4985,VALID,0.0509425,VALID,19.6512,VALID,350,VALID,0.283482,
2003-05-15, 01:47:00,VALID,916.62,VALID,0,VALID,93.599,VALID,0.101885,VALID,19.6505,VALID,279,VALID,0.110937,
2003-05-15, 01:48:00,VALID,916.599,VALID,0,VALID,93.6257,VALID,0.101885,VALID,19.6311,VALID,283,VALID,0.0671074,
2003-05-15, 01:49:00,VALID,916.597,VALID,0,VALID,93.9309,VALID,0.101885,VALID,19.6214,VALID,360,VALID,0.475446,
2003-05-15, 01:50:00,VALID,916.587,VALID,0,VALID,94.1356,VALID,0.0849042,VALID,19.6022,VALID,360,VALID,0.136068,
2003-05-15, 01:51:00,VALID,916.569,VALID,0,VALID,94.1026,VALID,0.0679233,VALID,19.5669,VALID,2,VALID,0.285657,
2003-05-15, 01:52:00,VALID,916.56,VALID,0,VALID,94.1293,VALID,0.101885,VALID,19.5507,VALID,2,VALID,0.300446,
2003-05-15, 01:53:00,VALID,916.561,VALID,0,VALID,94.2335,VALID,0.135847,VALID,19.5308,VALID,337,VALID,0.293304,
2003-05-15, 01:54:00,VALID,916.58,VALID,0,VALID,94.2628,VALID,0.101885,VALID,19.5473,VALID,353,VALID,0.422075,
2003-05-15, 01:55:00,VALID,916.554,VALID,0,VALID,94.1191,VALID,0.118866,VALID,19.5505,VALID,17,VALID,1.0683,
2003-05-15, 01:56:00,VALID,916.541,VALID,0,VALID,94.0224,VALID,0.0679233,VALID,19.557,VALID,20,VALID,1.86502,
2003-05-15, 01:57:00,VALID,916.536,VALID,0,VALID,94.1026,VALID,0.0679233,VALID,19.5405,VALID,342,VALID,0.846154,
2003-05-15, 01:58:00,VALID,916.556,VALID,0,VALID,93.7287,VALID,0.0509425,VALID,19.5637,VALID,264,VALID,0.680357,
2003-05-15, 01:59:00,VALID,916.552,VALID,0,VALID,93.7592,VALID,0.152827,VALID,19.5691,VALID,266,VALID,0.0214286,
2003-05-15, 02:00:00,VALID,916.527,VALID,0,VALID,93.8368,VALID,0.169808,VALID,19.5791,VALID,330,VALID,0.189704,
2003-05-15, 02:01:00,VALID,916.518,VALID,0,VALID,93.9194,VALID,0.101885,VALID,19.5863,VALID,65,VALID,0.178795,
2003-05-15, 02:02:00,VALID,916.506,VALID,0,VALID,93.8966,VALID,0.0679233,VALID,19.5634,VALID,19,VALID,0.14605,
2003-05-15, 02:03:00,VALID,916.485,VALID,0,VALID,94.0606,VALID,0.0679233,VALID,19.5473,VALID,356,VALID,0.0272436,
2003-05-15, 02:04:00,VALID,916.467,VALID,0,VALID,94.3798,VALID,0.0679233,VALID,19.5667,VALID,356,VALID,0,
2003-05-15, 02:05:00,VALID,916.425,VALID,0,VALID,94.4116,VALID,0.135847,VALID,19.5599,VALID,24,VALID,0.448269,
2003-05-15, 02:06:00,VALID,916.425,VALID,0,VALID,94.4688,VALID,0.0849042,VALID,19.5634,VALID,43,VALID,0.496394,
2003-05-15, 02:07:00,VALID,916.399,VALID,0,VALID,94.465,VALID,0.101885,VALID,19.5408,VALID,43,VALID,0.0578125,
2003-05-15, 02:08:00,VALID,916.367,VALID,0,VALID,94.3416,VALID,0.0679233,VALID,19.5308,VALID,43,VALID,0.256293,
2003-05-15, 02:09:00,VALID,916.354,VALID,0,VALID,94.264,VALID,0.0509425,VALID,19.5279,VALID,336,VALID,0.390024,
2003-05-15, 02:10:00,VALID,916.343,VALID,0,VALID,94.5972,VALID,0.0849042,VALID,19.5271,VALID,259,VALID,0.110268,
2003-05-15, 02:11:00,VALID,916.326,VALID,0,VALID,94.3709,VALID,0.152827,VALID,19.5405,VALID,26,VALID,0.894196,
2003-05-15, 02:12:00,VALID,916.313,VALID,0,VALID,94.5222,VALID,0.135847,VALID,19.5726,VALID,34,VALID,0.159255,
2003-05-15, 02:13:00,VALID,916.321,VALID,0,VALID,94.4764,VALID,0.135847,VALID,19.5729,VALID,33,VALID,0.0542411,
2003-05-15, 02:14:00,VALID,916.326,VALID,0,VALID,94.4421,VALID,0.118866,VALID,19.5468,VALID,41,VALID,0.215061,
2003-05-15, 02:15:00,VALID,916.334,VALID,0,VALID,94.4344,VALID,0.0849042,VALID,19.5313,VALID,97,VALID,0.300881,
2003-05-15, 02:16:00,VALID,916.335,VALID,0,VALID,94.6226,VALID,0.135847,VALID,19.5343,VALID,58,VALID,0.217187,
2003-05-15, 02:17:00,VALID,916.343,VALID,0,VALID,94.7473,VALID,0.101885,VALID,19.5214,VALID,58,VALID,0.00401786,
2003-05-15, 02:18:00,VALID,916.33,VALID,0,VALID,94.8719,VALID,0.0849042,VALID,19.5249,VALID,58,VALID,0.0522837,
2003-05-15, 02:19:00,VALID,916.333,VALID,0,VALID,94.8604,VALID,0.101885,VALID,19.5077,VALID,58,VALID,0,
2003-05-15, 02:20:00,VALID,916.317,VALID,0,VALID,94.8223,VALID,0.118866,VALID,19.5177,VALID,58,VALID,0.00108507,
2003-05-15, 02:21:00,VALID,916.315,VALID,0,VALID,94.793,VALID,0.0849042,VALID,19.5112,VALID,58,VALID,0.00200321,
2003-05-15, 02:22:00,VALID,916.328,VALID,0,VALID,94.7816,VALID,0.0849042,VALID,19.4821,VALID,58,VALID,0.124777,
2003-05-15, 02:23:00,VALID,916.316,VALID,0,VALID,94.5692,VALID,0.135847,VALID,19.4657,VALID,102,VALID,0.18683,
2003-05-15, 02:24:00,VALID,916.324,VALID,0,VALID,94.7396,VALID,0.152827,VALID,19.4692,VALID,69,VALID,0.131611,
2003-05-15, 02:25:00,VALID,916.306,VALID,0,VALID,94.8973,VALID,0.118866,VALID,19.4761,VALID,60,VALID,0.182812,
2003-05-15, 02:26:00,VALID,916.297,VALID,0,VALID,94.8553,VALID,0.101885,VALID,19.4339,VALID,32,VALID,0.244358,
2003-05-15, 02:27:00,VALID,916.293,VALID,0,VALID,94.8731,VALID,0.101885,VALID,19.4048,VALID,22,VALID,0.152644,
2003-05-15, 02:28:00,VALID,916.301,VALID,0,VALID,95.0423,VALID,0.0849042,VALID,19.4053,VALID,21,VALID,0.0935268,
2003-05-15, 02:29:00,VALID,916.283,VALID,0,VALID,95.1567,VALID,0.101885,VALID,19.3986,VALID,21,VALID,0.44308,
2003-05-15, 02:30:00,VALID,916.274,VALID,0,VALID,95.1682,VALID,0.101885,VALID,19.3762,VALID,21,VALID,0.0751202,
2003-05-15, 02:31:00,VALID,916.273,VALID,0,VALID,95.0448,VALID,0.118866,VALID,19.3463,VALID,21,VALID,0.240625,
2003-05-15, 02:32:00,VALID,916.255,VALID,0,VALID,94.8922,VALID,0.135847,VALID,19.3593,VALID,19,VALID,0.597656,
2003-05-15, 02:33:00,VALID,916.225,VALID,0,VALID,94.7562,VALID,0.0849042,VALID,19.3851,VALID,29,VALID,0.58734,
2003-05-15, 02:34:00,VALID,916.216,VALID,0,VALID,94.5832,VALID,0.101885,VALID,19.4182,VALID,35,VALID,0.376786,
2003-05-15, 02:35:00,VALID,916.219,VALID,0,VALID,94.5997,VALID,0.152827,VALID,19.4341,VALID,35,VALID,0.0879464,
2003-05-15, 02:36:00,VALID,916.201,VALID,0,VALID,94.4764,VALID,0.152827,VALID,19.4274,VALID,35,VALID,0.0917468,
2003-05-15, 02:37:00,VALID,916.192,VALID,0,VALID,94.4319,VALID,0.135847,VALID,19.4371,VALID,35,VALID,0.306473,
2003-05-15, 02:38:00,VALID,916.202,VALID,0,VALID,94.5692,VALID,0.135847,VALID,19.4436,VALID,35,VALID,0.0125868,
2003-05-15, 02:39:00,VALID,916.192,VALID,0,VALID,94.5858,VALID,0.0849042,VALID,19.4239,VALID,35,VALID,0.116386,
2003-05-15, 02:40:00,VALID,916.177,VALID,0,VALID,94.8579,VALID,0.135847,VALID,19.4209,VALID,42,VALID,0.404241,
2003-05-15, 02:41:00,VALID,916.187,VALID,0,VALID,94.8108,VALID,0.101885,VALID,19.4112,VALID,39,VALID,0.105134,
2003-05-15, 02:42:00,VALID,916.19,VALID,0,VALID,94.7523,VALID,0.135847,VALID,19.405,VALID,70,VALID,0.324519,
2003-05-15, 02:43:00,VALID,916.192,VALID,0,VALID,94.7689,VALID,0.101885,VALID,19.3754,VALID,141,VALID,0.234598,
2003-05-15, 02:44:00,VALID,916.192,VALID,0,VALID,94.6989,VALID,0.0679233,VALID,19.3724,VALID,122,VALID,0.383247,
2003-05-15, 02:45:00,VALID,916.204,VALID,0,VALID,94.7396,VALID,0.0849042,VALID,19.3759,VALID,123,VALID,0.0382612,
2003-05-15, 02:46:00,VALID,916.209,VALID,0,VALID,94.4815,VALID,0.0849042,VALID,19.3563,VALID,122,VALID,0.0830357,
2003-05-15, 02:47:00,VALID,916.195,VALID,0,VALID,94.4878,VALID,0.135847,VALID,19.3789,VALID,123,VALID,0.241295,
2003-05-15, 02:48:00,VALID,916.2,VALID,0,VALID,94.5667,VALID,0.169808,VALID,19.3752,VALID,177,VALID,0.47516,
2003-05-15, 02:49:00,VALID,916.205,VALID,0,VALID,94.7867,VALID,0.135847,VALID,19.3757,VALID,183,VALID,0.175223,
2003-05-15, 02:50:00,VALID,916.198,VALID,0,VALID,94.7333,VALID,0.118866,VALID,19.356,VALID,122,VALID,0.416016,
2003-05-15, 02:51:00,VALID,916.185,VALID,0,VALID,94.0377,VALID,0.118866,VALID,19.3339,VALID,60,VALID,0.5002,
2003-05-15, 02:52:00,VALID,916.174,VALID,0,VALID,93.8355,VALID,0.0849042,VALID,19.3824,VALID,52,VALID,0.156473,
2003-05-15, 02:53:00,VALID,916.188,VALID,0,VALID,93.3917,VALID,0.118866,VALID,19.4214,VALID,65,VALID,0.370536,
2003-05-15, 02:54:00,VALID,916.166,VALID,0,VALID,92.3439,VALID,0.118866,VALID,19.5281,VALID,210,VALID,0.563702,
2003-05-15, 02:55:00,VALID,916.162,VALID,0,VALID,91.7704,VALID,0.135847,VALID,19.599,VALID,229,VALID,0.372098,
2003-05-15, 02:56:00,VALID,916.171,VALID,0,VALID,91.141,VALID,0.118866,VALID,19.6472,VALID,194,VALID,0.473958,
2003-05-15, 02:57:00,VALID,916.179,VALID,0,VALID,91.8213,VALID,0.101885,VALID,19.6825,VALID,148,VALID,0.313301,
2003-05-15, 02:58:00,VALID,916.157,VALID,0,VALID,91.7183,VALID,0.101885,VALID,19.6823,VALID,175,VALID,0.73058,
2003-05-15, 02:59:00,VALID,916.161,VALID,0,VALID,91.923,VALID,0.186789,VALID,19.6927,VALID,237,VALID,0.0953125,
2003-05-15, 03:00:00,VALID,916.152,VALID,0,VALID,90.1186,VALID,0.169808,VALID,19.7154,VALID,216,VALID,0.694712,
2003-05-15, 03:01:00,VALID,916.146,VALID,0,VALID,90.4009,VALID,0.169808,VALID,19.8089,VALID,248,VALID,0.227009,
2003-05-15, 03:02:00,VALID,916.139,VALID,0,VALID,90.4658,VALID,0.118866,VALID,19.8153,VALID,2,VALID,0.814019,
2003-05-15, 03:03:00,VALID,916.136,VALID,0,VALID,88.8928,VALID,0.101885,VALID,19.8312,VALID,202,VALID,1.28946,
2003-05-15, 03:04:00,VALID,916.124,VALID,0,VALID,87.2677,VALID,0.135847,VALID,19.9705,VALID,223,VALID,0.863393,
2003-05-15, 03:05:00,VALID,916.115,VALID,0,VALID,85.6337,VALID,0.118866,VALID,20.1098,VALID,257,VALID,0.466964,
2003-05-15, 03:06:00,VALID,916.094,VALID,0,VALID,85.8727,VALID,0.135847,VALID,20.2329,VALID,208,VALID,0.366186,
2003-05-15, 03:07:00,VALID,916.096,VALID,0,VALID,85.9516,VALID,0.118866,VALID,20.258,VALID,193,VALID,0.730804,
2003-05-15, 03:08:00,VALID,916.075,VALID,0,VALID,84.0632,VALID,0.118866,VALID,20.3426,VALID,220,VALID,0.807075,
2003-05-15, 03:09:00,VALID,916.073,VALID,0,VALID,85.3043,VALID,0.0849042,VALID,20.4456,VALID,186,VALID,0.152644,
2003-05-15, 03:10:00,VALID,916.051,VALID,0,VALID,87.1596,VALID,0.101885,VALID,20.4264,VALID,66,VALID,0.383482,
2003-05-15, 03:11:00,VALID,916.041,VALID,0,VALID,86.6789,VALID,0.152827,VALID,20.3103,VALID,123,VALID,0.391518,
2003-05-15, 03:12:00,VALID,916.038,VALID,0,VALID,86.3928,VALID,0.152827,VALID,20.2488,VALID,203,VALID,0.403646,
2003-05-15, 03:13:00,VALID,916.045,VALID,0,VALID,87.4457,VALID,0.135847,VALID,20.219,VALID,212,VALID,0.0321429,
2003-05-15, 03:14:00,VALID,916.037,VALID,0,VALID,85.5586,VALID,0.118866,VALID,20.1774,VALID,174,VALID,0.5523,
2003-05-15, 03:15:00,VALID,916.008,VALID,0,VALID,86.3559,VALID,0.135847,VALID,20.219,VALID,211,VALID,0.485777,
2003-05-15, 03:16:00,VALID,916.017,VALID,0,VALID,85.1759,VALID,0.135847,VALID,20.2744,VALID,261,VALID,0.518973,
2003-05-15, 03:17:00,VALID,916.015,VALID,0,VALID,87.1507,VALID,0.135847,VALID,20.2968,VALID,351,VALID,0.362277,
2003-05-15, 03:18:00,VALID,915.998,VALID,0,VALID,87.9404,VALID,0.118866,VALID,20.2157,VALID,47,VALID,0.233974,
2003-05-15, 03:19:00,VALID,916.004,VALID,0,VALID,88.6079,VALID,0.118866,VALID,20.1257,VALID,43,VALID,0.408705,
2003-05-15, 03:20:00,VALID,916.006,VALID,0,VALID,88.7275,VALID,0.101885,VALID,20.0352,VALID,34,VALID,0.930556,
2003-05-15, 03:21:00,VALID,915.983,VALID,0,VALID,89.081,VALID,0.118866,VALID,19.9444,VALID,313,VALID,0.326522,
2003-05-15, 03:22:00,VALID,916.009,VALID,0,VALID,88.4922,VALID,0.101885,VALID,19.8671,VALID,358,VALID,0.550446,
2003-05-15, 03:23:00,VALID,916.012,VALID,0,VALID,88.0459,VALID,0.169808,VALID,19.8601,VALID,37,VALID,0.685491,
2003-05-15, 03:24:00,VALID,916.004,VALID,0,VALID,88.187,VALID,0.169808,VALID,19.8957,VALID,303,VALID,0.177284,
2003-05-15, 03:25:00,VALID,915.998,VALID,0,VALID,88.4884,VALID,0.135847,VALID,19.9161,VALID,171,VALID,0.282589,
2003-05-15, 03:26:00,VALID,915.99,VALID,0,VALID,89.3862,VALID,0.0339617,VALID,19.8944,VALID,41,VALID,0.30013,
2003-05-15, 03:27:00,VALID,915.988,VALID,0,VALID,89.6265,VALID,-0.0169808,VALID,19.8492,VALID,34,VALID,0.511619,
2003-05-15, 03:28:00,VALID,915.981,VALID,0,VALID,89.7626,VALID,0.0509425,VALID,19.7778,VALID,73,VALID,0.239955,
2003-05-15, 03:29:00,VALID,915.988,VALID,0,VALID,89.6977,VALID,0.0339617,VALID,19.7325,VALID,65,VALID,0.196875,
2003-05-15, 03:30:00,VALID,915.987,VALID,0,VALID,89.9597,VALID,0.0169808,VALID,19.7007,VALID,33,VALID,1.23077,
2003-05-15, 03:31:00,VALID,915.962,VALID,0,VALID,89.6443,VALID,0.0849042,VALID,19.6773,VALID,296,VALID,0.662277,
2003-05-15, 03:32:00,VALID,915.973,VALID,0,VALID,89.713,VALID,-0.0169808,VALID,19.6972,VALID,208,VALID,0.25434,
2003-05-15, 03:33:00,VALID,915.962,VALID,0,VALID,88.8343,VALID,0,VALID,19.6776,VALID,208,VALID,0,